ACA15B EDDF-CYYC

Flight info

Callsign ACA15B
Flight time N/A
Altitude 24000
Route MARUN7F/25C MARUN Y152 ARPEG/N0463F340 Z850 ABILU DCT ATPAQ/N0468F360 DCT REXMI DCT KARLI DCT GUNPA/M082F360 DCT 65N010W 6730N02000W 6930N03000W 71N040W/M082F380 72N060W DCT INGUM/N0473F380 DCT 7130N07000W 7030N08000W 6830N09000W 65N100W 62N105W/N0478F400 DCT YMM Q856 LETRM/N0463F390 DCT IGVUX/N0468F400 Q882 BIRKO BIRKO6
Aircraft B77L/H-SDE1E2E3FGHIJ2J3J4J5M1RWXY/LB1D1

Departure

Time 2026-05-05 19:24
Airport Frankfurt Main Airport (EDDF)

Arrival

Time N/A
Airport Calgary International Airport (CYYC)
Time Latitude Longitude Altitude Speed Heading
2026-05-05 18:32 50.04929 8.57778 360 ft 0 kts 21°
2026-05-05 19:05 50.04931 8.57779 350 ft 0 kts 21°
2026-05-05 19:06 50.04931 8.57780 350 ft 0 kts 21°
2026-05-05 19:11 50.04931 8.57779 350 ft 0 kts 21°
2026-05-05 19:14 50.04906 8.57764 360 ft 6 kts 34°
2026-05-05 19:14 50.04886 8.57722 360 ft 4 kts 84°
2026-05-05 19:15 50.04886 8.57693 360 ft 0 kts 111°
2026-05-05 19:16 50.04885 8.57698 360 ft 3 kts 111°
2026-05-05 19:17 50.04883 8.57704 360 ft 1 kts 111°
2026-05-05 19:17 50.04858 8.57800 358 ft 13 kts 112°
2026-05-05 19:17 50.04802 8.57902 358 ft 13 kts 151°
2026-05-05 19:17 50.04726 8.57950 355 ft 0 kts 160°
2026-05-05 19:18 50.04704 8.57963 357 ft 11 kts 160°
2026-05-05 19:18 50.04622 8.58009 355 ft 13 kts 159°
2026-05-05 19:18 50.04572 8.58107 357 ft 13 kts 88°
2026-05-05 19:18 50.04595 8.58240 357 ft 13 kts 70°
2026-05-05 19:19 50.04626 8.58369 355 ft 13 kts 69°
2026-05-05 19:19 50.04647 8.58521 353 ft 14 kts 109°
2026-05-05 19:19 50.04618 8.58569 355 ft 12 kts 146°
2026-05-05 19:19 50.04605 8.58579 357 ft 0 kts 158°
2026-05-05 19:21 50.04549 8.58611 355 ft 13 kts 167°
2026-05-05 19:21 50.04478 8.58542 357 ft 12 kts 244°
2026-05-05 19:21 50.04473 8.58524 358 ft 0 kts 248°
2026-05-05 19:24 50.04468 8.58502 355 ft 12 kts 248°
2026-05-05 19:24 50.04369 8.58099 358 ft 84 kts 249°
2026-05-05 19:24 50.04054 8.56743 402 ft 176 kts 250°
2026-05-05 19:24 50.03603 8.54780 1159 ft 201 kts 251°
2026-05-05 19:25 50.03413 8.52562 2149 ft 215 kts 275°
2026-05-05 19:25 50.03488 8.50270 3233 ft 208 kts 258°
2026-05-05 19:25 50.02952 8.48154 3807 ft 215 kts 250°
2026-05-05 19:25 50.02853 8.45804 4258 ft 237 kts 282°
2026-05-05 19:26 50.03646 8.43431 4789 ft 260 kts 310°
2026-05-05 19:26 50.05164 8.41803 5026 ft 273 kts 340°
2026-05-05 19:26 50.07056 8.41432 5044 ft 276 kts 357°
2026-05-05 19:26 50.08983 8.41418 5031 ft 278 kts 357°
2026-05-05 19:27 50.10912 8.41385 5030 ft 276 kts 357°
2026-05-05 19:27 50.12827 8.41331 5107 ft 272 kts 356°
2026-05-05 19:27 50.14715 8.41259 5592 ft 274 kts 356°
2026-05-05 19:27 50.16650 8.41173 6440 ft 281 kts 356°
2026-05-05 19:28 50.18617 8.41077 7332 ft 285 kts 355°
2026-05-05 19:28 50.20613 8.40974 8260 ft 288 kts 355°
2026-05-05 19:28 50.22632 8.40865 9181 ft 292 kts 355°
2026-05-05 19:28 50.24680 8.40750 10016 ft 297 kts 355°
2026-05-05 19:29 50.26801 8.40634 10527 ft 316 kts 356°
2026-05-05 19:29 50.29102 8.40806 10725 ft 346 kts
2026-05-05 19:29 50.31539 8.41631 10923 ft 372 kts 15°
2026-05-05 19:29 50.34035 8.42957 11557 ft 383 kts 18°
2026-05-05 19:30 50.36530 8.44407 12348 ft 390 kts 20°
2026-05-05 19:30 50.39095 8.45901 13228 ft 395 kts 20°
2026-05-05 19:30 50.41730 8.47391 14072 ft 400 kts 19°
2026-05-05 19:30 50.44373 8.48849 14848 ft 405 kts 19°
2026-05-05 19:31 50.47016 8.50294 15614 ft 409 kts 19°
2026-05-05 19:31 50.49733 8.51712 16390 ft 414 kts 17°
2026-05-05 19:31 50.52505 8.53033 17151 ft 419 kts 17°
2026-05-05 19:31 50.55322 8.54342 17890 ft 424 kts 17°
2026-05-05 19:32 50.58168 8.55670 18556 ft 428 kts 18°
2026-05-05 19:32 50.61038 8.57028 19274 ft 431 kts 18°
2026-05-05 19:32 50.63914 8.58403 19951 ft 434 kts 18°
2026-05-05 19:32 50.66819 8.59801 20595 ft 438 kts 18°
2026-05-05 19:33 50.69745 8.61212 21224 ft 442 kts 18°
2026-05-05 19:33 50.72708 8.62643 21863 ft 446 kts 18°
2026-05-05 19:33 50.75689 8.64082 22485 ft 448 kts 18°
2026-05-05 19:33 50.78770 8.64914 22885 ft 456 kts
2026-05-05 19:34 50.81906 8.64033 23381 ft 464 kts 340°
2026-05-05 19:34 50.84756 8.61754 23806 ft 466 kts 326°
2026-05-05 19:34 50.87161 8.58320 23798 ft 464 kts 309°
2026-05-05 19:35 50.91224 8.50339 23795 ft 465 kts 308°
2026-05-05 19:35 50.93283 8.46395 23818 ft 463 kts 309°
2026-05-05 19:35 50.95352 8.42503 23813 ft 461 kts 309°
2026-05-05 19:35 50.97422 8.38631 23810 ft 460 kts 309°
2026-05-05 19:36 50.99523 8.34808 23919 ft 460 kts 313°
2026-05-05 19:36 51.01880 8.31331 24325 ft 465 kts 320°
2026-05-05 19:36 51.04467 8.28187 24758 ft 471 kts 325°